Time,TemperatureF,DewpointF,PressureIn,WindDirection,WindDirectionDegrees,WindSpeedMPH,WindSpeedGustMPH,Humidity,HourlyPrecipIn,Conditions,Clouds,dailyrainin,SoftwareType,DateUTC
2013-03-03 00:04:00,37.1,28.6,30.26,South,180,4.0,-999.0,71,0.00,,,0.00,Wunderground v.1.15,2013-03-03 06:04:00,
2013-03-03 00:09:00,37.1,28.6,30.26,South,180,4.0,-999.0,71,0.00,,,0.00,Wunderground v.1.15,2013-03-03 06:09:00,
2013-03-03 00:14:00,37.1,28.6,30.26,South,180,4.0,-999.0,71,0.00,,,0.00,Wunderground v.1.15,2013-03-03 06:14:00,
2013-03-03 00:19:00,37.1,28.6,30.26,South,180,4.0,-999.0,71,0.00,,,0.00,Wunderground v.1.15,2013-03-03 06:19:00,
2013-03-03 00:24:00,37.1,28.9,30.26,SE,135,0.0,-999.0,72,0.00,,,0.00,Wunderground v.1.15,2013-03-03 06:24:00,
2013-03-03 00:29:00,37.1,28.9,30.26,SE,135,0.0,-999.0,72,0.00,,,0.00,Wunderground v.1.15,2013-03-03 06:29:00,
2013-03-03 00:34:00,37.1,28.9,30.26,SE,135,0.0,-999.0,72,0.00,,,0.00,Wunderground v.1.15,2013-03-03 06:34:00,
2013-03-03 00:39:00,36.1,29.3,30.25,N/A,-737280,0.0,-999.0,76,0.00,,,0.00,Wunderground v.1.15,2013-03-03 06:39:00,
2013-03-03 00:44:00,36.1,29.3,30.25,N/A,-737280,0.0,-999.0,76,0.00,,,0.00,Wunderground v.1.15,2013-03-03 06:44:00,
2013-03-03 00:49:00,36.1,29.3,30.25,N/A,-737280,0.0,-999.0,76,0.00,,,0.00,Wunderground v.1.15,2013-03-03 06:49:00,
2013-03-03 00:54:00,35.1,28.6,30.25,N/A,-737280,0.0,-999.0,77,0.00,,,0.00,Wunderground v.1.15,2013-03-03 06:54:00,
2013-03-03 00:59:00,35.1,28.6,30.25,N/A,-737280,0.0,-999.0,77,0.00,,,0.00,Wunderground v.1.15,2013-03-03 06:59:00,
2013-03-03 01:04:00,35.1,28.6,30.25,N/A,-737280,0.0,-999.0,77,0.00,,,0.00,Wunderground v.1.15,2013-03-03 07:04:00,
2013-03-03 01:09:00,34.3,28.5,30.25,N/A,-737280,0.0,-999.0,79,0.00,,,0.00,Wunderground v.1.15,2013-03-03 07:09:00,
2013-03-03 01:14:00,34.3,28.5,30.25,N/A,-737280,0.0,-999.0,79,0.00,,,0.00,Wunderground v.1.15,2013-03-03 07:14:00,
2013-03-03 01:19:00,34.3,28.5,30.25,N/A,-737280,0.0,-999.0,79,0.00,,,0.00,Wunderground v.1.15,2013-03-03 07:19:00,
2013-03-03 01:24:00,33.7,27.9,30.25,N/A,-737280,0.0,-999.0,79,0.00,,,0.00,Wunderground v.1.15,2013-03-03 07:24:00,
2013-03-03 01:29:00,33.7,27.9,30.25,N/A,-737280,0.0,-999.0,79,0.00,,,0.00,Wunderground v.1.15,2013-03-03 07:29:00,
2013-03-03 01:34:00,33.7,27.9,30.25,N/A,-737280,0.0,-999.0,79,0.00,,,0.00,Wunderground v.1.15,2013-03-03 07:34:00,
2013-03-03 01:39:00,33.3,27.2,30.25,N/A,-737280,0.0,-999.0,78,0.00,,,0.00,Wunderground v.1.15,2013-03-03 07:39:00,
2013-03-03 01:44:00,33.3,27.2,30.25,N/A,-737280,0.0,-999.0,78,0.00,,,0.00,Wunderground v.1.15,2013-03-03 07:44:00,
2013-03-03 01:49:00,33.3,27.2,30.25,N/A,-737280,0.0,-999.0,78,0.00,,,0.00,Wunderground v.1.15,2013-03-03 07:49:00,
2013-03-03 01:54:00,33.0,28.1,30.25,SE,135,0.0,-999.0,82,0.00,,,0.00,Wunderground v.1.15,2013-03-03 07:54:00,
2013-03-03 01:59:00,33.0,28.1,30.25,SE,135,0.0,-999.0,82,0.00,,,0.00,Wunderground v.1.15,2013-03-03 07:59:00,
2013-03-03 02:04:00,33.0,28.1,30.25,SE,135,0.0,-999.0,82,0.00,,,0.00,Wunderground v.1.15,2013-03-03 08:04:00,
2013-03-03 02:09:00,35.1,29.6,30.25,SE,135,4.0,-999.0,80,0.00,,,0.00,Wunderground v.1.15,2013-03-03 08:09:00,
2013-03-03 02:14:00,35.1,29.6,30.25,SE,135,4.0,-999.0,80,0.00,,,0.00,Wunderground v.1.15,2013-03-03 08:14:00,
2013-03-03 02:19:00,35.1,29.6,30.25,SE,135,4.0,-999.0,80,0.00,,,0.00,Wunderground v.1.15,2013-03-03 08:19:00,
2013-03-03 02:24:00,35.6,29.4,30.25,SE,135,3.0,-999.0,78,0.00,,,0.00,Wunderground v.1.15,2013-03-03 08:24:00,
2013-03-03 02:29:00,35.6,29.4,30.25,SE,135,3.0,-999.0,78,0.00,,,0.00,Wunderground v.1.15,2013-03-03 08:29:00,
2013-03-03 02:34:00,35.6,29.4,30.25,SE,135,3.0,-999.0,78,0.00,,,0.00,Wunderground v.1.15,2013-03-03 08:34:00,
2013-03-03 02:39:00,35.7,29.5,30.26,SE,135,2.0,-999.0,78,0.00,,,0.00,Wunderground v.1.15,2013-03-03 08:39:00,
2013-03-03 02:44:00,35.7,29.5,30.26,SE,135,2.0,-999.0,78,0.00,,,0.00,Wunderground v.1.15,2013-03-03 08:44:00,
2013-03-03 02:49:00,35.7,29.5,30.26,SE,135,2.0,-999.0,78,0.00,,,0.00,Wunderground v.1.15,2013-03-03 08:49:00,
2013-03-03 02:54:00,35.9,29.4,30.26,SSE,158,4.0,-999.0,77,0.00,,,0.00,Wunderground v.1.15,2013-03-03 08:54:00,
2013-03-03 02:59:00,35.9,29.4,30.26,SSE,158,4.0,-999.0,77,0.00,,,0.00,Wunderground v.1.15,2013-03-03 08:59:00,
2013-03-03 03:04:00,35.9,29.4,30.26,SSE,158,4.0,-999.0,77,0.00,,,0.00,Wunderground v.1.15,2013-03-03 09:04:00,
2013-03-03 03:09:00,35.7,29.2,30.26,SSE,158,1.0,-999.0,77,0.00,,,0.00,Wunderground v.1.15,2013-03-03 09:09:00,
2013-03-03 03:14:00,35.7,29.2,30.26,SSE,158,1.0,-999.0,77,0.00,,,0.00,Wunderground v.1.15,2013-03-03 09:14:00,
2013-03-03 03:19:00,35.7,29.2,30.26,SSE,158,1.0,-999.0,77,0.00,,,0.00,Wunderground v.1.15,2013-03-03 09:19:00,
2013-03-03 03:24:00,34.6,28.4,30.25,N/A,-737280,0.0,-999.0,78,0.00,,,0.00,Wunderground v.1.15,2013-03-03 09:24:00,
2013-03-03 03:29:00,34.6,28.4,30.25,N/A,-737280,0.0,-999.0,78,0.00,,,0.00,Wunderground v.1.15,2013-03-03 09:29:00,
2013-03-03 03:34:00,34.6,28.4,30.25,N/A,-737280,0.0,-999.0,78,0.00,,,0.00,Wunderground v.1.15,2013-03-03 09:34:00,
2013-03-03 03:39:00,33.9,28.7,30.26,N/A,-737280,0.0,-999.0,81,0.00,,,0.00,Wunderground v.1.15,2013-03-03 09:39:00,
2013-03-03 03:44:00,33.9,28.7,30.26,N/A,-737280,0.0,-999.0,81,0.00,,,0.00,Wunderground v.1.15,2013-03-03 09:44:00,
2013-03-03 03:49:00,33.9,28.7,30.26,N/A,-737280,0.0,-999.0,81,0.00,,,0.00,Wunderground v.1.15,2013-03-03 09:49:00,
2013-03-03 03:54:00,33.6,28.1,30.26,N/A,-737280,0.0,-999.0,80,0.00,,,0.00,Wunderground v.1.15,2013-03-03 09:54:00,
2013-03-03 03:59:00,33.6,28.1,30.26,N/A,-737280,0.0,-999.0,80,0.00,,,0.00,Wunderground v.1.15,2013-03-03 09:59:00,
2013-03-03 04:04:00,33.6,28.1,30.26,N/A,-737280,0.0,-999.0,80,0.00,,,0.00,Wunderground v.1.15,2013-03-03 10:04:00,
2013-03-03 04:09:00,32.8,27.9,30.26,SE,135,0.0,-999.0,82,0.00,,,0.00,Wunderground v.1.15,2013-03-03 10:09:00,
2013-03-03 04:14:00,32.8,27.9,30.26,SE,135,0.0,-999.0,82,0.00,,,0.00,Wunderground v.1.15,2013-03-03 10:14:00,
2013-03-03 04:19:00,32.8,27.9,30.26,SE,135,0.0,-999.0,82,0.00,,,0.00,Wunderground v.1.15,2013-03-03 10:19:00,
2013-03-03 04:24:00,35.2,29.6,30.26,SE,135,2.0,-999.0,80,0.00,,,0.00,Wunderground v.1.15,2013-03-03 10:24:00,
2013-03-03 04:29:00,35.2,29.6,30.26,SE,135,2.0,-999.0,80,0.00,,,0.00,Wunderground v.1.15,2013-03-03 10:29:00,
2013-03-03 04:34:00,35.2,29.6,30.26,SE,135,2.0,-999.0,80,0.00,,,0.00,Wunderground v.1.15,2013-03-03 10:34:00,
2013-03-03 04:39:00,39.2,31.3,30.25,SE,135,5.0,-999.0,73,0.00,,,0.00,Wunderground v.1.15,2013-03-03 10:39:00,
2013-03-03 04:44:00,39.2,31.3,30.25,SE,135,5.0,-999.0,73,0.00,,,0.00,Wunderground v.1.15,2013-03-03 10:44:00,
2013-03-03 04:49:00,39.2,31.3,30.25,SE,135,5.0,-999.0,73,0.00,,,0.00,Wunderground v.1.15,2013-03-03 10:49:00,
2013-03-03 04:54:00,41.0,31.2,30.25,SE,135,6.0,-999.0,68,0.00,,,0.00,Wunderground v.1.15,2013-03-03 10:54:00,
2013-03-03 04:59:00,41.0,31.2,30.25,SE,135,6.0,-999.0,68,0.00,,,0.00,Wunderground v.1.15,2013-03-03 10:59:00,
2013-03-03 05:04:00,41.0,31.2,30.25,SE,135,6.0,-999.0,68,0.00,,,0.00,Wunderground v.1.15,2013-03-03 11:04:00,
2013-03-03 05:09:00,42.6,32.0,30.26,SE,135,6.0,-999.0,66,0.00,,,0.00,Wunderground v.1.15,2013-03-03 11:09:00,
2013-03-03 05:14:00,42.6,32.0,30.26,SE,135,6.0,-999.0,66,0.00,,,0.00,Wunderground v.1.15,2013-03-03 11:14:00,
2013-03-03 05:19:00,42.6,32.0,30.26,SE,135,6.0,-999.0,66,0.00,,,0.00,Wunderground v.1.15,2013-03-03 11:19:00,
2013-03-03 05:24:00,44.8,31.8,30.25,SSE,158,6.0,-999.0,60,0.00,,,0.00,Wunderground v.1.15,2013-03-03 11:24:00,
2013-03-03 05:29:00,44.8,31.8,30.25,SSE,158,6.0,-999.0,60,0.00,,,0.00,Wunderground v.1.15,2013-03-03 11:29:00,
2013-03-03 05:34:00,44.8,31.8,30.25,SSE,158,6.0,-999.0,60,0.00,,,0.00,Wunderground v.1.15,2013-03-03 11:34:00,
2013-03-03 05:39:00,47.0,30.3,30.24,SSE,158,8.0,-999.0,52,0.00,,,0.00,Wunderground v.1.15,2013-03-03 11:39:00,
2013-03-03 05:44:00,47.0,30.3,30.24,SSE,158,8.0,-999.0,52,0.00,,,0.00,Wunderground v.1.15,2013-03-03 11:44:00,
2013-03-03 05:49:00,47.0,30.3,30.24,SSE,158,8.0,-999.0,52,0.00,,,0.00,Wunderground v.1.15,2013-03-03 11:49:00,
2013-03-03 05:54:00,48.5,29.2,30.24,SSE,158,9.0,-999.0,47,0.00,,,0.00,Wunderground v.1.15,2013-03-03 11:54:00,
2013-03-03 05:59:00,48.5,29.2,30.24,SSE,158,9.0,-999.0,47,0.00,,,0.00,Wunderground v.1.15,2013-03-03 11:59:00,
2013-03-03 06:04:00,48.5,29.2,30.24,SSE,158,9.0,-999.0,47,0.00,,,0.00,Wunderground v.1.15,2013-03-03 12:04:00,
2013-03-03 06:09:00,50.0,29.5,30.24,SSE,158,11.0,-999.0,45,0.00,,,0.00,Wunderground v.1.15,2013-03-03 12:09:00,
2013-03-03 06:14:00,50.0,29.5,30.24,SSE,158,11.0,-999.0,45,0.00,,,0.00,Wunderground v.1.15,2013-03-03 12:14:00,
2013-03-03 06:19:00,50.0,29.5,30.24,SSE,158,11.0,-999.0,45,0.00,,,0.00,Wunderground v.1.15,2013-03-03 12:19:00,
2013-03-03 06:24:00,51.8,31.1,30.23,South,180,9.0,-999.0,45,0.00,,,0.00,Wunderground v.1.15,2013-03-03 12:24:00,
2013-03-03 06:29:00,51.8,31.1,30.23,South,180,9.0,-999.0,45,0.00,,,0.00,Wunderground v.1.15,2013-03-03 12:29:00,
2013-03-03 06:34:00,51.8,31.1,30.23,South,180,9.0,-999.0,45,0.00,,,0.00,Wunderground v.1.15,2013-03-03 12:34:00,
2013-03-03 06:39:00,52.2,30.4,30.23,SSE,158,11.0,-999.0,43,0.00,,,0.00,Wunderground v.1.15,2013-03-03 12:39:00,
2013-03-03 06:44:00,52.2,30.4,30.23,SSE,158,11.0,-999.0,43,0.00,,,0.00,Wunderground v.1.15,2013-03-03 12:44:00,
2013-03-03 06:49:00,52.2,30.4,30.23,SSE,158,11.0,-999.0,43,0.00,,,0.00,Wunderground v.1.15,2013-03-03 12:49:00,
2013-03-03 06:54:00,53.3,31.4,30.23,SSE,158,12.0,-999.0,43,0.00,,,0.00,Wunderground v.1.15,2013-03-03 12:54:00,
2013-03-03 06:59:00,53.3,31.4,30.23,SSE,158,12.0,-999.0,43,0.00,,,0.00,Wunderground v.1.15,2013-03-03 12:59:00,
2013-03-03 07:04:00,53.3,31.4,30.23,SSE,158,12.0,-999.0,43,0.00,,,0.00,Wunderground v.1.15,2013-03-03 13:04:00,
2013-03-03 07:09:00,54.7,31.4,30.22,SSE,158,12.0,-999.0,41,0.00,,,0.00,Wunderground v.1.15,2013-03-03 13:09:00,
2013-03-03 07:14:00,54.7,31.4,30.22,SSE,158,12.0,-999.0,41,0.00,,,0.00,Wunderground v.1.15,2013-03-03 13:14:00,
2013-03-03 07:19:00,54.7,31.4,30.22,SSE,158,12.0,-999.0,41,0.00,,,0.00,Wunderground v.1.15,2013-03-03 13:19:00,
2013-03-03 07:24:00,55.7,32.3,30.21,South,180,12.0,-999.0,41,0.00,,,0.00,Wunderground v.1.15,2013-03-03 13:24:00,
2013-03-03 07:29:00,55.7,32.3,30.21,South,180,12.0,-999.0,41,0.00,,,0.00,Wunderground v.1.15,2013-03-03 13:29:00,
2013-03-03 07:34:00,55.7,32.3,30.21,South,180,12.0,-999.0,41,0.00,,,0.00,Wunderground v.1.15,2013-03-03 13:34:00,
2013-03-03 07:39:00,57.1,33.6,30.20,South,180,12.0,-999.0,41,0.00,,,0.00,Wunderground v.1.15,2013-03-03 13:39:00,
2013-03-03 07:44:00,57.1,33.6,30.20,South,180,12.0,-999.0,41,0.00,,,0.00,Wunderground v.1.15,2013-03-03 13:44:00,
2013-03-03 07:49:00,57.1,33.6,30.20,South,180,12.0,-999.0,41,0.00,,,0.00,Wunderground v.1.15,2013-03-03 13:49:00,
2013-03-03 07:54:00,57.9,32.4,30.20,SSE,158,12.0,-999.0,38,0.00,,,0.00,Wunderground v.1.15,2013-03-03 13:54:00,
2013-03-03 07:59:00,57.9,32.4,30.20,SSE,158,12.0,-999.0,38,0.00,,,0.00,Wunderground v.1.15,2013-03-03 13:59:00,
2013-03-03 08:04:00,57.9,32.4,30.20,SSE,158,12.0,-999.0,38,0.00,,,0.00,Wunderground v.1.15,2013-03-03 14:04:00,
2013-03-03 08:09:00,59.1,32.8,30.18,SSE,158,13.0,-999.0,37,0.00,,,0.00,Wunderground v.1.15,2013-03-03 14:09:00,
2013-03-03 08:14:00,59.1,32.8,30.18,SSE,158,13.0,-999.0,37,0.00,,,0.00,Wunderground v.1.15,2013-03-03 14:14:00,
2013-03-03 08:19:00,59.1,32.8,30.18,SSE,158,13.0,-999.0,37,0.00,,,0.00,Wunderground v.1.15,2013-03-03 14:19:00,
2013-03-03 08:24:00,60.0,32.9,30.18,SSE,158,12.0,-999.0,36,0.00,,,0.00,Wunderground v.1.15,2013-03-03 14:24:00,
2013-03-03 08:29:00,60.0,32.9,30.18,SSE,158,12.0,-999.0,36,0.00,,,0.00,Wunderground v.1.15,2013-03-03 14:29:00,
2013-03-03 08:34:00,60.0,32.9,30.18,SSE,158,12.0,-999.0,36,0.00,,,0.00,Wunderground v.1.15,2013-03-03 14:34:00,
2013-03-03 08:39:00,60.8,33.7,30.16,SSE,158,13.0,-999.0,36,0.00,,,0.00,Wunderground v.1.15,2013-03-03 14:39:00,
2013-03-03 08:44:00,60.8,33.7,30.16,SSE,158,13.0,-999.0,36,0.00,,,0.00,Wunderground v.1.15,2013-03-03 14:44:00,
2013-03-03 08:49:00,60.8,33.7,30.16,SSE,158,13.0,-999.0,36,0.00,,,0.00,Wunderground v.1.15,2013-03-03 14:49:00,
2013-03-03 08:54:00,61.6,34.4,30.15,SSE,158,12.0,-999.0,36,0.00,,,0.00,Wunderground v.1.15,2013-03-03 14:54:00,
2013-03-03 08:59:00,61.6,34.4,30.15,SSE,158,12.0,-999.0,36,0.00,,,0.00,Wunderground v.1.15,2013-03-03 14:59:00,
2013-03-03 09:04:00,61.6,34.4,30.15,SSE,158,12.0,-999.0,36,0.00,,,0.00,Wunderground v.1.15,2013-03-03 15:04:00,
2013-03-03 09:09:00,63.3,36.6,30.13,SSE,158,9.0,-999.0,37,0.00,,,0.00,Wunderground v.1.15,2013-03-03 15:09:00,
2013-03-03 09:14:00,63.3,36.6,30.13,SSE,158,9.0,-999.0,37,0.00,,,0.00,Wunderground v.1.15,2013-03-03 15:14:00,
2013-03-03 09:19:00,63.3,36.6,30.13,SSE,158,9.0,-999.0,37,0.00,,,0.00,Wunderground v.1.15,2013-03-03 15:19:00,
2013-03-03 09:24:00,63.3,35.2,30.12,SSE,158,11.0,-999.0,35,0.00,,,0.00,Wunderground v.1.15,2013-03-03 15:24:00,
2013-03-03 09:29:00,63.3,35.2,30.12,SSE,158,11.0,-999.0,35,0.00,,,0.00,Wunderground v.1.15,2013-03-03 15:29:00,
2013-03-03 09:34:00,63.3,35.2,30.12,SSE,158,11.0,-999.0,35,0.00,,,0.00,Wunderground v.1.15,2013-03-03 15:34:00,
2013-03-03 09:39:00,64.2,34.5,30.11,SSE,158,12.0,-999.0,33,0.00,,,0.00,Wunderground v.1.15,2013-03-03 15:39:00,
2013-03-03 09:44:00,64.2,34.5,30.11,SSE,158,12.0,-999.0,33,0.00,,,0.00,Wunderground v.1.15,2013-03-03 15:44:00,
2013-03-03 09:49:00,64.2,34.5,30.11,SSE,158,12.0,-999.0,33,0.00,,,0.00,Wunderground v.1.15,2013-03-03 15:49:00,
2013-03-03 09:54:00,65.0,35.2,30.10,SSE,158,11.0,-999.0,33,0.00,,,0.00,Wunderground v.1.15,2013-03-03 15:54:00,
2013-03-03 09:59:00,65.0,35.2,30.10,SSE,158,11.0,-999.0,33,0.00,,,0.00,Wunderground v.1.15,2013-03-03 15:59:00,
2013-03-03 10:04:00,65.0,35.2,30.10,SSE,158,11.0,-999.0,33,0.00,,,0.00,Wunderground v.1.15,2013-03-03 16:04:00,
2013-03-03 10:09:00,65.6,36.5,30.09,SSE,158,12.0,-999.0,34,0.00,,,0.00,Wunderground v.1.15,2013-03-03 16:09:00,
2013-03-03 10:14:00,65.6,36.5,30.09,SSE,158,12.0,-999.0,34,0.00,,,0.00,Wunderground v.1.15,2013-03-03 16:14:00,
2013-03-03 10:19:00,65.6,36.5,30.09,SSE,158,12.0,-999.0,34,0.00,,,0.00,Wunderground v.1.15,2013-03-03 16:19:00,
2013-03-03 10:24:00,66.3,37.1,30.08,SSE,158,11.0,-999.0,34,0.00,,,0.00,Wunderground v.1.15,2013-03-03 16:24:00,
2013-03-03 10:29:00,66.3,37.1,30.08,SSE,158,11.0,-999.0,34,0.00,,,0.00,Wunderground v.1.15,2013-03-03 16:29:00,
2013-03-03 10:34:00,66.3,37.1,30.08,SSE,158,11.0,-999.0,34,0.00,,,0.00,Wunderground v.1.15,2013-03-03 16:34:00,
2013-03-03 10:39:00,66.5,34.9,30.07,SSE,158,11.0,-999.0,31,0.00,,,0.00,Wunderground v.1.15,2013-03-03 16:39:00,
2013-03-03 10:44:00,66.5,34.9,30.07,SSE,158,11.0,-999.0,31,0.00,,,0.00,Wunderground v.1.15,2013-03-03 16:44:00,
2013-03-03 10:49:00,66.5,34.9,30.07,SSE,158,11.0,-999.0,31,0.00,,,0.00,Wunderground v.1.15,2013-03-03 16:49:00,
2013-03-03 10:54:00,66.8,36.0,30.07,SSE,158,12.0,-999.0,32,0.00,,,0.00,Wunderground v.1.15,2013-03-03 16:54:00,
2013-03-03 10:59:00,66.8,36.0,30.07,SSE,158,12.0,-999.0,32,0.00,,,0.00,Wunderground v.1.15,2013-03-03 16:59:00,
2013-03-03 11:04:00,66.8,36.0,30.07,SSE,158,12.0,-999.0,32,0.00,,,0.00,Wunderground v.1.15,2013-03-03 17:04:00,
2013-03-03 11:09:00,67.4,36.5,30.05,South,180,13.0,-999.0,32,0.00,,,0.00,Wunderground v.1.15,2013-03-03 17:09:00,
2013-03-03 11:14:00,67.4,36.5,30.05,South,180,13.0,-999.0,32,0.00,,,0.00,Wunderground v.1.15,2013-03-03 17:14:00,
2013-03-03 11:19:00,67.4,36.5,30.05,South,180,13.0,-999.0,32,0.00,,,0.00,Wunderground v.1.15,2013-03-03 17:19:00,
2013-03-03 11:24:00,67.1,37.8,30.04,South,180,12.0,-999.0,34,0.00,,,0.00,Wunderground v.1.15,2013-03-03 17:24:00,
2013-03-03 11:29:00,67.1,37.8,30.04,South,180,12.0,-999.0,34,0.00,,,0.00,Wunderground v.1.15,2013-03-03 17:29:00,
2013-03-03 11:34:00,67.1,37.8,30.04,South,180,12.0,-999.0,34,0.00,,,0.00,Wunderground v.1.15,2013-03-03 17:34:00,
2013-03-03 11:39:00,67.2,37.1,30.03,South,180,12.0,-999.0,33,0.00,,,0.00,Wunderground v.1.15,2013-03-03 17:39:00,
2013-03-03 11:44:00,67.2,37.1,30.03,South,180,12.0,-999.0,33,0.00,,,0.00,Wunderground v.1.15,2013-03-03 17:44:00,
2013-03-03 11:49:00,67.2,37.1,30.03,South,180,12.0,-999.0,33,0.00,,,0.00,Wunderground v.1.15,2013-03-03 17:49:00,
2013-03-03 11:54:00,67.6,36.7,30.02,SSE,158,13.0,-999.0,32,0.00,,,0.00,Wunderground v.1.15,2013-03-03 17:54:00,
2013-03-03 11:59:00,67.6,36.7,30.02,SSE,158,13.0,-999.0,32,0.00,,,0.00,Wunderground v.1.15,2013-03-03 17:59:00,
2013-03-03 12:04:00,67.6,36.7,30.02,SSE,158,13.0,-999.0,32,0.00,,,0.00,Wunderground v.1.15,2013-03-03 18:04:00,
2013-03-03 12:09:00,67.5,37.4,30.01,SSE,158,13.0,-999.0,33,0.00,,,0.00,Wunderground v.1.15,2013-03-03 18:09:00,
2013-03-03 12:14:00,67.5,37.4,30.01,SSE,158,13.0,-999.0,33,0.00,,,0.00,Wunderground v.1.15,2013-03-03 18:14:00,
2013-03-03 12:19:00,67.5,37.4,30.01,SSE,158,13.0,-999.0,33,0.00,,,0.00,Wunderground v.1.15,2013-03-03 18:19:00,
2013-03-03 12:24:00,67.4,36.5,30.00,SSE,158,16.0,-999.0,32,0.00,,,0.00,Wunderground v.1.15,2013-03-03 18:24:00,
2013-03-03 12:29:00,67.4,36.5,30.00,SSE,158,16.0,-999.0,32,0.00,,,0.00,Wunderground v.1.15,2013-03-03 18:29:00,
2013-03-03 12:34:00,67.4,36.5,30.00,SSE,158,16.0,-999.0,32,0.00,,,0.00,Wunderground v.1.15,2013-03-03 18:34:00,
2013-03-03 12:39:00,68.0,37.0,29.99,SSE,158,14.0,-999.0,32,0.00,,,0.00,Wunderground v.1.15,2013-03-03 18:39:00,
2013-03-03 12:44:00,68.0,37.0,29.99,SSE,158,14.0,-999.0,32,0.00,,,0.00,Wunderground v.1.15,2013-03-03 18:44:00,
2013-03-03 12:49:00,68.0,37.0,29.99,SSE,158,14.0,-999.0,32,0.00,,,0.00,Wunderground v.1.15,2013-03-03 18:49:00,
2013-03-03 12:54:00,68.5,37.5,29.98,SSE,158,12.0,-999.0,32,0.00,,,0.00,Wunderground v.1.15,2013-03-03 18:54:00,
2013-03-03 12:59:00,68.5,37.5,29.98,SSE,158,12.0,-999.0,32,0.00,,,0.00,Wunderground v.1.15,2013-03-03 18:59:00,
2013-03-03 13:04:00,68.5,37.5,29.98,SSE,158,12.0,-999.0,32,0.00,,,0.00,Wunderground v.1.15,2013-03-03 19:04:00,
2013-03-03 13:09:00,68.1,37.1,29.97,SSE,158,13.0,-999.0,32,0.00,,,0.00,Wunderground v.1.15,2013-03-03 19:09:00,
2013-03-03 13:14:00,68.1,37.1,29.97,SSE,158,13.0,-999.0,32,0.00,,,0.00,Wunderground v.1.15,2013-03-03 19:14:00,
2013-03-03 13:19:00,68.1,37.1,29.97,SSE,158,13.0,-999.0,32,0.00,,,0.00,Wunderground v.1.15,2013-03-03 19:19:00,
2013-03-03 13:24:00,68.2,38.0,29.97,SSE,158,13.0,-999.0,33,0.00,,,0.00,Wunderground v.1.15,2013-03-03 19:24:00,
2013-03-03 13:29:00,68.2,38.0,29.97,SSE,158,13.0,-999.0,33,0.00,,,0.00,Wunderground v.1.15,2013-03-03 19:29:00,
2013-03-03 13:34:00,68.2,38.0,29.97,SSE,158,13.0,-999.0,33,0.00,,,0.00,Wunderground v.1.15,2013-03-03 19:34:00,
2013-03-03 13:39:00,67.9,36.9,29.97,SSE,158,15.0,-999.0,32,0.00,,,0.00,Wunderground v.1.15,2013-03-03 19:39:00,
2013-03-03 13:44:00,67.9,36.9,29.97,SSE,158,15.0,-999.0,32,0.00,,,0.00,Wunderground v.1.15,2013-03-03 19:44:00,
2013-03-03 13:49:00,67.9,36.9,29.97,SSE,158,15.0,-999.0,32,0.00,,,0.00,Wunderground v.1.15,2013-03-03 19:49:00,
2013-03-03 13:54:00,67.8,38.4,29.97,SSE,158,14.0,-999.0,34,0.00,,,0.00,Wunderground v.1.15,2013-03-03 19:54:00,
2013-03-03 13:59:00,67.8,38.4,29.97,SSE,158,14.0,-999.0,34,0.00,,,0.00,Wunderground v.1.15,2013-03-03 19:59:00,
2013-03-03 14:04:00,67.8,38.4,29.97,SSE,158,14.0,-999.0,34,0.00,,,0.00,Wunderground v.1.15,2013-03-03 20:04:00,
2013-03-03 14:09:00,67.2,37.1,29.96,SSE,158,13.0,-999.0,33,0.00,,,0.00,Wunderground v.1.15,2013-03-03 20:09:00,
2013-03-03 14:14:00,67.2,37.1,29.96,SSE,158,13.0,-999.0,33,0.00,,,0.00,Wunderground v.1.15,2013-03-03 20:14:00,
2013-03-03 14:19:00,67.2,37.1,29.96,SSE,158,13.0,-999.0,33,0.00,,,0.00,Wunderground v.1.15,2013-03-03 20:19:00,
2013-03-03 14:24:00,66.7,38.2,29.96,SSE,158,12.0,-999.0,35,0.00,,,0.00,Wunderground v.1.15,2013-03-03 20:24:00,
2013-03-03 14:29:00,66.7,38.2,29.96,SSE,158,12.0,-999.0,35,0.00,,,0.00,Wunderground v.1.15,2013-03-03 20:29:00,
2013-03-03 14:34:00,66.7,38.2,29.96,SSE,158,12.0,-999.0,35,0.00,,,0.00,Wunderground v.1.15,2013-03-03 20:34:00,
2013-03-03 14:39:00,66.3,37.8,29.95,SSE,158,11.0,-999.0,35,0.00,,,0.00,Wunderground v.1.15,2013-03-03 20:39:00,
2013-03-03 14:44:00,66.3,37.8,29.95,SSE,158,11.0,-999.0,35,0.00,,,0.00,Wunderground v.1.15,2013-03-03 20:44:00,
2013-03-03 14:49:00,66.3,37.8,29.95,SSE,158,11.0,-999.0,35,0.00,,,0.00,Wunderground v.1.15,2013-03-03 20:49:00,
2013-03-03 14:54:00,65.0,38.8,29.95,SSE,158,10.0,-999.0,38,0.00,,,0.00,Wunderground v.1.15,2013-03-03 20:54:00,
2013-03-03 14:59:00,65.0,38.8,29.95,SSE,158,10.0,-999.0,38,0.00,,,0.00,Wunderground v.1.15,2013-03-03 20:59:00,
2013-03-03 15:04:00,65.0,38.8,29.95,SSE,158,10.0,-999.0,38,0.00,,,0.00,Wunderground v.1.15,2013-03-03 21:04:00,
2013-03-03 15:09:00,63.9,37.8,29.95,SE,135,9.0,-999.0,38,0.00,,,0.00,Wunderground v.1.15,2013-03-03 21:09:00,
2013-03-03 15:14:00,63.9,37.8,29.95,SE,135,9.0,-999.0,38,0.00,,,0.00,Wunderground v.1.15,2013-03-03 21:14:00,
2013-03-03 15:19:00,63.9,37.8,29.95,SE,135,9.0,-999.0,38,0.00,,,0.00,Wunderground v.1.15,2013-03-03 21:19:00,
2013-03-03 15:24:00,63.2,37.8,29.94,SE,135,10.0,-999.0,39,0.00,,,0.00,Wunderground v.1.15,2013-03-03 21:24:00,
2013-03-03 15:29:00,63.2,37.8,29.94,SE,135,10.0,-999.0,39,0.00,,,0.00,Wunderground v.1.15,2013-03-03 21:29:00,
2013-03-03 15:34:00,63.2,37.8,29.94,SE,135,10.0,-999.0,39,0.00,,,0.00,Wunderground v.1.15,2013-03-03 21:34:00,
2013-03-03 15:39:00,62.7,38.0,29.94,SE,135,10.0,-999.0,40,0.00,,,0.00,Wunderground v.1.15,2013-03-03 21:39:00,
2013-03-03 15:44:00,62.7,38.0,29.94,SE,135,10.0,-999.0,40,0.00,,,0.00,Wunderground v.1.15,2013-03-03 21:44:00,
2013-03-03 15:49:00,62.7,38.0,29.94,SE,135,10.0,-999.0,40,0.00,,,0.00,Wunderground v.1.15,2013-03-03 21:49:00,
2013-03-03 15:54:00,61.8,39.1,29.94,SE,135,8.0,-999.0,43,0.00,,,0.00,Wunderground v.1.15,2013-03-03 21:54:00,
2013-03-03 15:59:00,61.8,39.1,29.94,SE,135,8.0,-999.0,43,0.00,,,0.00,Wunderground v.1.15,2013-03-03 21:59:00,
2013-03-03 16:04:00,61.8,39.1,29.94,SE,135,8.0,-999.0,43,0.00,,,0.00,Wunderground v.1.15,2013-03-03 22:04:00,
2013-03-03 16:09:00,60.7,38.6,29.93,SE,135,7.0,-999.0,44,0.00,,,0.00,Wunderground v.1.15,2013-03-03 22:09:00,
2013-03-03 16:14:00,60.7,38.6,29.93,SE,135,7.0,-999.0,44,0.00,,,0.00,Wunderground v.1.15,2013-03-03 22:14:00,
2013-03-03 16:19:00,60.7,38.6,29.93,SE,135,7.0,-999.0,44,0.00,,,0.00,Wunderground v.1.15,2013-03-03 22:19:00,
2013-03-03 16:24:00,60.5,38.5,29.93,SE,135,9.0,-999.0,44,0.00,,,0.00,Wunderground v.1.15,2013-03-03 22:24:00,
2013-03-03 16:29:00,60.5,38.5,29.93,SE,135,9.0,-999.0,44,0.00,,,0.00,Wunderground v.1.15,2013-03-03 22:29:00,
2013-03-03 16:34:00,60.5,38.5,29.93,SE,135,9.0,-999.0,44,0.00,,,0.00,Wunderground v.1.15,2013-03-03 22:34:00,
2013-03-03 16:39:00,60.6,38.6,29.92,SE,135,11.0,-999.0,44,0.00,,,0.00,Wunderground v.1.15,2013-03-03 22:39:00,
2013-03-03 16:44:00,60.6,38.6,29.92,SE,135,11.0,-999.0,44,0.00,,,0.00,Wunderground v.1.15,2013-03-03 22:44:00,
2013-03-03 16:49:00,60.6,38.6,29.92,SE,135,11.0,-999.0,44,0.00,,,0.00,Wunderground v.1.15,2013-03-03 22:49:00,
2013-03-03 16:54:00,60.5,39.0,29.91,SE,135,11.0,-999.0,45,0.00,,,0.00,Wunderground v.1.15,2013-03-03 22:54:00,
2013-03-03 16:59:00,60.5,39.0,29.91,SE,135,11.0,-999.0,45,0.00,,,0.00,Wunderground v.1.15,2013-03-03 22:59:00,
2013-03-03 17:04:00,60.5,39.0,29.91,SE,135,11.0,-999.0,45,0.00,,,0.00,Wunderground v.1.15,2013-03-03 23:04:00,
2013-03-03 17:09:00,60.4,39.5,29.90,SE,135,11.0,-999.0,46,0.00,,,0.00,Wunderground v.1.15,2013-03-03 23:09:00,
2013-03-03 17:14:00,60.4,39.5,29.90,SE,135,11.0,-999.0,46,0.00,,,0.00,Wunderground v.1.15,2013-03-03 23:14:00,
2013-03-03 17:19:00,60.4,39.5,29.90,SE,135,11.0,-999.0,46,0.00,,,0.00,Wunderground v.1.15,2013-03-03 23:19:00,
2013-03-03 17:24:00,60.3,40.5,29.91,SE,135,10.0,-999.0,48,0.00,,,0.00,Wunderground v.1.15,2013-03-03 23:24:00,
2013-03-03 17:29:00,60.3,40.5,29.91,SE,135,10.0,-999.0,48,0.00,,,0.00,Wunderground v.1.15,2013-03-03 23:29:00,
2013-03-03 17:34:00,60.3,40.5,29.91,SE,135,10.0,-999.0,48,0.00,,,0.00,Wunderground v.1.15,2013-03-03 23:34:00,
2013-03-03 17:39:00,59.9,40.7,29.90,SE,135,10.0,-999.0,49,0.00,,,0.00,Wunderground v.1.15,2013-03-03 23:39:00,
2013-03-03 17:44:00,59.9,40.7,29.90,SE,135,10.0,-999.0,49,0.00,,,0.00,Wunderground v.1.15,2013-03-03 23:44:00,
2013-03-03 17:49:00,59.9,40.7,29.90,SE,135,10.0,-999.0,49,0.00,,,0.00,Wunderground v.1.15,2013-03-03 23:49:00,
2013-03-03 17:54:00,59.6,41.4,29.90,SE,135,10.0,-999.0,51,0.00,,,0.00,Wunderground v.1.15,2013-03-03 23:54:00,
2013-03-03 17:59:00,59.6,41.4,29.90,SE,135,10.0,-999.0,51,0.00,,,0.00,Wunderground v.1.15,2013-03-03 23:59:00,
2013-03-03 18:04:00,59.6,41.4,29.90,SE,135,10.0,-999.0,51,0.00,,,0.00,Wunderground v.1.15,2013-03-04 00:04:00,
2013-03-03 18:09:00,60.0,42.8,29.90,SE,135,13.0,-999.0,53,0.00,,,0.00,Wunderground v.1.15,2013-03-04 00:09:00,
2013-03-03 18:14:00,60.0,42.8,29.90,SE,135,13.0,-999.0,53,0.00,,,0.00,Wunderground v.1.15,2013-03-04 00:14:00,
2013-03-03 18:19:00,60.0,42.8,29.90,SE,135,13.0,-999.0,53,0.00,,,0.00,Wunderground v.1.15,2013-03-04 00:19:00,
2013-03-03 18:24:00,60.1,43.9,29.90,SSE,158,12.0,-999.0,55,0.00,,,0.00,Wunderground v.1.15,2013-03-04 00:24:00,
2013-03-03 18:29:00,60.1,43.9,29.90,SSE,158,12.0,-999.0,55,0.00,,,0.00,Wunderground v.1.15,2013-03-04 00:29:00,
2013-03-03 18:34:00,60.1,43.9,29.90,SSE,158,12.0,-999.0,55,0.00,,,0.00,Wunderground v.1.15,2013-03-04 00:34:00,
2013-03-03 18:39:00,60.5,44.7,29.90,SSE,158,14.0,-999.0,56,0.00,,,0.00,Wunderground v.1.15,2013-03-04 00:39:00,
2013-03-03 18:44:00,60.5,44.7,29.90,SSE,158,14.0,-999.0,56,0.00,,,0.00,Wunderground v.1.15,2013-03-04 00:44:00,
2013-03-03 18:49:00,60.5,44.7,29.90,SSE,158,14.0,-999.0,56,0.00,,,0.00,Wunderground v.1.15,2013-03-04 00:49:00,
2013-03-03 18:54:00,60.3,45.0,29.90,SSE,158,14.0,-999.0,57,0.00,,,0.00,Wunderground v.1.15,2013-03-04 00:54:00,
2013-03-03 18:59:00,60.3,45.0,29.90,SSE,158,14.0,-999.0,57,0.00,,,0.00,Wunderground v.1.15,2013-03-04 00:59:00,
2013-03-03 19:04:00,60.3,45.0,29.90,SSE,158,14.0,-999.0,57,0.00,,,0.00,Wunderground v.1.15,2013-03-04 01:04:00,
2013-03-03 19:09:00,60.0,45.6,29.90,SSE,158,15.0,-999.0,59,0.00,,,0.00,Wunderground v.1.15,2013-03-04 01:09:00,
2013-03-03 19:14:00,60.0,45.6,29.90,SSE,158,15.0,-999.0,59,0.00,,,0.00,Wunderground v.1.15,2013-03-04 01:14:00,
2013-03-03 19:19:00,60.0,45.6,29.90,SSE,158,15.0,-999.0,59,0.00,,,0.00,Wunderground v.1.15,2013-03-04 01:19:00,
2013-03-03 19:24:00,59.4,45.5,29.90,SSE,158,14.0,-999.0,60,0.00,,,0.00,Wunderground v.1.15,2013-03-04 01:24:00,
2013-03-03 19:29:00,59.4,45.5,29.90,SSE,158,14.0,-999.0,60,0.00,,,0.00,Wunderground v.1.15,2013-03-04 01:29:00,
2013-03-03 19:34:00,59.4,45.5,29.90,SSE,158,14.0,-999.0,60,0.00,,,0.00,Wunderground v.1.15,2013-03-04 01:34:00,
2013-03-03 19:39:00,59.5,45.6,29.90,SSE,158,13.0,-999.0,60,0.00,,,0.00,Wunderground v.1.15,2013-03-04 01:39:00,
2013-03-03 19:44:00,59.5,45.6,29.90,SSE,158,13.0,-999.0,60,0.00,,,0.00,Wunderground v.1.15,2013-03-04 01:44:00,
2013-03-03 19:49:00,59.5,45.6,29.90,SSE,158,13.0,-999.0,60,0.00,,,0.00,Wunderground v.1.15,2013-03-04 01:49:00,
2013-03-03 19:54:00,59.3,45.4,29.89,SSE,158,15.0,-999.0,60,0.00,,,0.00,Wunderground v.1.15,2013-03-04 01:54:00,
2013-03-03 19:59:00,59.3,45.4,29.89,SSE,158,15.0,-999.0,60,0.00,,,0.00,Wunderground v.1.15,2013-03-04 01:59:00,
2013-03-03 20:04:00,59.3,45.4,29.89,SSE,158,15.0,-999.0,60,0.00,,,0.00,Wunderground v.1.15,2013-03-04 02:04:00,
2013-03-03 20:09:00,59.0,45.1,29.90,SSE,158,15.0,-999.0,60,0.00,,,0.00,Wunderground v.1.15,2013-03-04 02:09:00,
2013-03-03 20:14:00,59.0,45.1,29.90,SSE,158,15.0,-999.0,60,0.00,,,0.00,Wunderground v.1.15,2013-03-04 02:14:00,
2013-03-03 20:19:00,59.0,45.1,29.90,SSE,158,15.0,-999.0,60,0.00,,,0.00,Wunderground v.1.15,2013-03-04 02:19:00,
2013-03-03 20:24:00,58.7,44.8,29.89,SSE,158,14.0,-999.0,60,0.00,,,0.00,Wunderground v.1.15,2013-03-04 02:24:00,
2013-03-03 20:29:00,58.7,44.8,29.89,SSE,158,14.0,-999.0,60,0.00,,,0.00,Wunderground v.1.15,2013-03-04 02:29:00,
2013-03-03 20:34:00,58.7,44.8,29.89,SSE,158,14.0,-999.0,60,0.00,,,0.00,Wunderground v.1.15,2013-03-04 02:34:00,
2013-03-03 20:39:00,58.2,44.8,29.89,SSE,158,13.0,-999.0,61,0.00,,,0.00,Wunderground v.1.15,2013-03-04 02:39:00,
2013-03-03 20:44:00,58.2,44.8,29.89,SSE,158,13.0,-999.0,61,0.00,,,0.00,Wunderground v.1.15,2013-03-04 02:44:00,
2013-03-03 20:49:00,58.2,44.8,29.89,SSE,158,13.0,-999.0,61,0.00,,,0.00,Wunderground v.1.15,2013-03-04 02:49:00,
2013-03-03 20:54:00,58.0,44.6,29.89,SSE,158,14.0,-999.0,61,0.00,,,0.00,Wunderground v.1.15,2013-03-04 02:54:00,
2013-03-03 20:59:00,58.0,44.6,29.89,SSE,158,14.0,-999.0,61,0.00,,,0.00,Wunderground v.1.15,2013-03-04 02:59:00,
2013-03-03 21:04:00,58.0,44.6,29.89,SSE,158,14.0,-999.0,61,0.00,,,0.00,Wunderground v.1.15,2013-03-04 03:04:00,
2013-03-03 21:09:00,57.5,44.6,29.89,SSE,158,13.0,-999.0,62,0.00,,,0.00,Wunderground v.1.15,2013-03-04 03:09:00,
2013-03-03 21:14:00,57.5,44.6,29.89,SSE,158,13.0,-999.0,62,0.00,,,0.00,Wunderground v.1.15,2013-03-04 03:14:00,
2013-03-03 21:19:00,57.5,44.6,29.89,SSE,158,13.0,-999.0,62,0.00,,,0.00,Wunderground v.1.15,2013-03-04 03:19:00,
2013-03-03 21:24:00,56.9,44.8,29.89,SSE,158,12.0,-999.0,64,0.00,,,0.00,Wunderground v.1.15,2013-03-04 03:24:00,
2013-03-03 21:29:00,56.9,44.8,29.89,SSE,158,12.0,-999.0,64,0.00,,,0.00,Wunderground v.1.15,2013-03-04 03:29:00,
2013-03-03 21:34:00,56.9,44.8,29.89,SSE,158,12.0,-999.0,64,0.00,,,0.00,Wunderground v.1.15,2013-03-04 03:34:00,
2013-03-03 21:39:00,56.5,44.9,29.88,SSE,158,11.0,-999.0,65,0.00,,,0.00,Wunderground v.1.15,2013-03-04 03:39:00,
2013-03-03 21:44:00,56.5,44.9,29.88,SSE,158,11.0,-999.0,65,0.00,,,0.00,Wunderground v.1.15,2013-03-04 03:44:00,
2013-03-03 21:49:00,56.5,44.9,29.88,SSE,158,11.0,-999.0,65,0.00,,,0.00,Wunderground v.1.15,2013-03-04 03:49:00,
2013-03-03 21:54:00,56.1,44.9,29.87,SSE,158,13.0,-999.0,66,0.00,,,0.00,Wunderground v.1.15,2013-03-04 03:54:00,
2013-03-03 21:59:00,56.1,44.9,29.87,SSE,158,13.0,-999.0,66,0.00,,,0.00,Wunderground v.1.15,2013-03-04 03:59:00,
2013-03-03 22:04:00,56.1,44.9,29.87,SSE,158,13.0,-999.0,66,0.00,,,0.00,Wunderground v.1.15,2013-03-04 04:04:00,
2013-03-03 22:09:00,55.7,45.3,29.87,SSE,158,14.0,-999.0,68,0.00,,,0.00,Wunderground v.1.15,2013-03-04 04:09:00,
2013-03-03 22:14:00,55.7,45.3,29.87,SSE,158,14.0,-999.0,68,0.00,,,0.00,Wunderground v.1.15,2013-03-04 04:14:00,
2013-03-03 22:19:00,55.7,45.3,29.87,SSE,158,14.0,-999.0,68,0.00,,,0.00,Wunderground v.1.15,2013-03-04 04:19:00,
2013-03-03 22:24:00,55.7,45.7,29.86,SSE,158,13.0,-999.0,69,0.00,,,0.00,Wunderground v.1.15,2013-03-04 04:24:00,
2013-03-03 22:29:00,55.7,45.7,29.86,SSE,158,13.0,-999.0,69,0.00,,,0.00,Wunderground v.1.15,2013-03-04 04:29:00,
2013-03-03 22:34:00,55.7,45.7,29.86,SSE,158,13.0,-999.0,69,0.00,,,0.00,Wunderground v.1.15,2013-03-04 04:34:00,
2013-03-03 22:39:00,55.8,46.2,29.86,SSE,158,13.0,-999.0,70,0.00,,,0.00,Wunderground v.1.15,2013-03-04 04:39:00,
2013-03-03 22:44:00,55.8,46.2,29.86,SSE,158,13.0,-999.0,70,0.00,,,0.00,Wunderground v.1.15,2013-03-04 04:44:00,
2013-03-03 22:49:00,55.8,46.2,29.86,SSE,158,13.0,-999.0,70,0.00,,,0.00,Wunderground v.1.15,2013-03-04 04:49:00,
2013-03-03 22:54:00,56.1,46.8,29.85,SE,135,14.0,-999.0,71,0.00,,,0.00,Wunderground v.1.15,2013-03-04 04:54:00,
2013-03-03 22:59:00,56.1,46.8,29.85,SE,135,14.0,-999.0,71,0.00,,,0.00,Wunderground v.1.15,2013-03-04 04:59:00,
2013-03-03 23:04:00,56.1,46.8,29.85,SE,135,14.0,-999.0,71,0.00,,,0.00,Wunderground v.1.15,2013-03-04 05:04:00,
2013-03-03 23:09:00,55.8,46.9,29.85,SSE,158,14.0,-999.0,72,0.00,,,0.00,Wunderground v.1.15,2013-03-04 05:09:00,
2013-03-03 23:14:00,55.8,46.9,29.85,SSE,158,14.0,-999.0,72,0.00,,,0.00,Wunderground v.1.15,2013-03-04 05:14:00,
2013-03-03 23:19:00,55.8,46.9,29.85,SSE,158,14.0,-999.0,72,0.00,,,0.00,Wunderground v.1.15,2013-03-04 05:19:00,
2013-03-03 23:24:00,55.5,47.3,29.84,SSE,158,14.0,-999.0,74,0.00,,,0.00,Wunderground v.1.15,2013-03-04 05:24:00,
2013-03-03 23:29:00,55.5,47.3,29.84,SSE,158,14.0,-999.0,74,0.00,,,0.00,Wunderground v.1.15,2013-03-04 05:29:00,
2013-03-03 23:34:00,55.5,47.3,29.84,SSE,158,14.0,-999.0,74,0.00,,,0.00,Wunderground v.1.15,2013-03-04 05:34:00,
2013-03-03 23:39:00,55.5,47.7,29.83,SSE,158,13.0,-999.0,75,0.00,,,0.00,Wunderground v.1.15,2013-03-04 05:39:00,
2013-03-03 23:44:00,55.5,47.7,29.83,SSE,158,13.0,-999.0,75,0.00,,,0.00,Wunderground v.1.15,2013-03-04 05:44:00,
2013-03-03 23:49:00,55.5,47.7,29.83,SSE,158,13.0,-999.0,75,0.00,,,0.00,Wunderground v.1.15,2013-03-04 05:49:00,
2013-03-03 23:54:00,55.4,47.6,29.82,SSE,158,15.0,-999.0,75,0.00,,,0.00,Wunderground v.1.15,2013-03-04 05:54:00,
2013-03-03 23:59:00,55.4,47.6,29.82,SSE,158,15.0,-999.0,75,0.00,,,0.00,Wunderground v.1.15,2013-03-04 05:59:00,